Retour au catalogue

STARLINK-33921

ActifCommunicationsVLEO
NORAD 65934·PAYLOAD·🇺🇸 United States

Lancé Oct 8, 2025 depuis Vandenberg Space Force Base

Loading…

Prochains Passages (prochaines 24 heures)

TLE

FraisSource: CelesTrak SupGP

Époque: Sep 15, 2026, 03:05 UTC

1 65934C 25225AA  26258.12895833  .00065358  00000+0  19313-2 0  2588
2 65934  53.1599   4.5247 0001155  89.5146 118.8758 15.34353384    16

Suivez STARLINK-33921 en temps réel avec AllMySat

Download on the App Store